Regional Weather Roundup
Issued by NWS

Home | Current Version | Previous Version | Text Only | Print | Product List | Glossary Off
Versions: 1 2 3 4 5 6 7 8 9 10 11 12 13 14 15 16 17 18 19 20 21 22 23 24 25 26 27 28 29 30 31 32 33 34 35 36 37 38 39 40 41 42 43 44 45 46 47 48 49 50

601
ASUS45 KCYS 092110
RWRWY

WYOMING REGIONAL WEATHER ROUNDUP
NATIONAL WEATHER SERVICE CHEYENNE WY
200 PM MST FRI DEC 09 2016

NOTE:  "FAIR" INDICATES FEW OR NO CLOUDS BELOW 12,000 FEET
WITH NO SIGNIFICANT WEATHER AND/OR OBSTRUCTIONS TO VISIBILITY.

WYZ001-092200-
YELLOWSTONE NATIONAL PARK

CITY           SKY/WX    TMP DP  RH WIND       PRES   REMARKS
LK YELLOWSTONE   N/A     25  22  88 VRB3      30.00F
W YELLOWSTONE  NOT AVBL

$$
WYZ002>013-054>058-071-098>099-092200-
NORTHERN WYOMING

CITY           SKY/WX    TMP DP  RH WIND       PRES   REMARKS
JACKSON        LGT SNOW  25  23  93 S6        30.03F VSB 1   WCI  18
CODY           FAIR      13   1  59 CALM      30.09F
GREYBULL       FAIR      15   2  56 S6        30.16F WCI   6
WORLAND        FAIR      13   3  64 VRB3      30.14F
SHERIDAN       FAIR      10   0  63 CALM      30.17F
BUFFALO        FAIR       8  -1  66 SE8       30.10F WCI  -4
GILLETTE       FAIR       9   1  70 N3        30.17S
HULETT         FAIR       9   0  66 CALM      30.19F
NEWCASTLE      FAIR      14   1  57 W8        30.19S WCI   3

$$
WYZ014>020-022>026-101>103-092200-
CENTRAL WYOMING

CITY           SKY/WX    TMP DP  RH WIND       PRES   REMARKS
BIG PINEY      LGT SNOW  18  13  80 NE6       30.10F WCI  10
PINEDALE       LGT SNOW  21  18  86 MISG      30.11S
DUBOIS         CLOUDY    32  23  69 NW14G23   29.96S WCI  22
LANDER         FAIR      18   5  57 CALM      30.02F
RIVERTON       FAIR      20   7  57 VRB3      30.04F
CASPER         CLOUDY     8   1  73 VRB3      30.08F
DOUGLAS        CLOUDY    10   2  69 CALM      30.14S

$$
WYZ021-027>030-104>119-092200-
SOUTHERN WYOMING

CITY           SKY/WX    TMP DP  RH WIND       PRES   REMARKS
EVANSTON       FAIR      37  29  72 W16G25    30.12F WCI  28
KEMMERER         N/A     36  30  80 W20G29    30.10S WCI  25
FORT BRIDGER   FAIR      42  31  66 W18G26    30.14F
ROCK SPRINGS   FAIR      37  29  72 W26       30.08F WCI  25
DIXON          CLOUDY    37  26  63 S14       30.20F WCI  28
RAWLINS        FAIR      38  25  59 SW30G46   30.07F WCI  26
SARATOGA       MOCLDY    36  27  69 SW12      30.13F WCI  27
LARAMIE        CLOUDY    36  23  59 W17       30.08R WCI  26
CHEYENNE       FAIR      45  24  43 W16G22    30.07R
TORRINGTON     FAIR      26   9  48 CALM      30.16R
PINE BLUFFS    FAIR      32  23  69 NE14      30.10R WCI  22

$$




USA.gov is the U.S. government's official web portal to all federal, state and local government web resources and services.